[[{"header":{"parameterUnit":"m.s-1","parameterCategory":2,"la1":30.2991,"la2":30.254,"lo1":-89.0895,"lo2":-89.0444,"dy":0.0017,"dx":0.0017,"nx":28,"ny":28,"refTime":"2023-08-04T21:00:00:Z","depth":"0","parameterNumber":2,"parameterNumberName":"U-component_of_CURRENTS"},"data":[0,0,0,0,0,0,0,0,0,0,0,0,0,0,0,0,0,0,0,0,0,0,0,0,0,0,0,0,0,0,0,0,0,0,0,0,0,0,0,0,0,0,0,0,0,0,0,0,0,0,0,0,0,0,0,0,0,0,0.3159,0.3161,0,0.3293,0.3294,0.3295,0.3263,0.3261,0.3259,0.3257,0.3285,0.3287,0.329,0,0,0,0,0,0,0,0,0,0,0,0,0,0.3033,0.3034,0.3158,0.3161,0.3163,0.3293,0.3294,0.3295,0.3263,0.3261,0.3259,0.3257,0.3284,0.3287,0.329,0,0,0,0,0,0,0,0,0,0,0,0,0,0.3111,0.3034,0.3158,0.3169,0.3172,0.3293,0.3294,0.3295,0.3264,0.3261,0.3258,0.3256,0.3283,0.3287,0.329,0.3368,0,0,0.3301,0.3303,0,0,0,0,0,0,0,0,0.3107,0.3115,0.3165,0.3169,0.3172,0.3265,0.326,0.3317,0.3264,0.322,0.3257,0.3254,0.3276,0.328,0.3301,0.3369,0.3371,0.3302,0.3304,0.3306,0.3307,0,0,0,0,0,0,0,0.3101,0.311,0.3203,0.3168,0.3172,0.3223,0.3228,0.3271,0.3253,0.3224,0.3224,0.3253,0.3275,0.3298,0.3302,0.3371,0.3302,0.3305,0.3307,0.3309,0.3469,0.3471,0,0,0,0,0,0,0.3096,0.3104,0.3199,0.3208,0.3141,0.3227,0.3233,0.3232,0.3255,0.326,0.3255,0.3251,0.3293,0.3297,0.3302,0.3343,0.3306,0.3309,0.3311,0.3467,0.347,0.3472,0,0,0,0,0,0,0.3092,0.3102,0.3194,0.3168,0.3184,0.3231,0.3231,0.3236,0.3265,0.3282,0.3281,0.328,0.3291,0.3297,0.3338,0.3346,0.3311,0.3314,0.3465,0.3468,0.3471,0.3459,0,0,0,0,0,0,0.3087,0.3099,0.3099,0.3166,0.3185,0.328,0.3235,0.3241,0.3291,0.3286,0.3304,0.3303,0.3289,0.3333,0.3342,0.335,0.3317,0.3462,0.3466,0.347,0.3457,0.3461,0.3465,0,0,0,0,0,0.3082,0.311,0.3098,0.3111,0.3182,0.3283,0.3298,0.3318,0.3295,0.3328,0.3321,0.3303,0.3363,0.3338,0.3348,0.3357,0.346,0.3465,0.3469,0.3455,0.346,0.3465,0,0,0,0,0,0,0.3045,0.3112,0.3099,0.3139,0.3208,0.3281,0.3321,0.3337,0.3363,0.3345,0.3337,0.3339,0.3377,0.3388,0.336,0.342,0.3407,0.3414,0.3393,0.3398,0.3402,0.3336,0.332,0,0,0,0,0,0.3041,0.3085,0.3146,0.3184,0.3212,0.3266,0.3309,0.3328,0.3367,0.3376,0.3393,0.3401,0.3411,0.3418,0.3446,0.3488,0.3495,0.3502,0.3507,0.351,0.3467,0.3511,0.3513,0.3487,0.3487,0.3487,0,0,0.303,0.3086,0.31,0.3183,0.3226,0.326,0.3283,0.336,0.3362,0.3377,0.3393,0.3431,0.3432,0.3462,0.348,0.3464,0.3531,0.3516,0.3517,0.3471,0.3516,0.3518,0.3519,0.349,0.349,0.3489,0,0,0.3056,0.3084,0.3118,0.3176,0.3265,0.3293,0.3318,0.3398,0.3399,0.3444,0.3438,0.348,0.3517,0.3511,0.3505,0.3562,0.3562,0.3586,0.3537,0.3583,0.3583,0.3584,0.3627,0.3631,0.3575,0.3575,0.3575,0,0.3033,0.3085,0.3151,0.3201,0.3238,0.3298,0.3324,0.3343,0.3426,0.3419,0.344,0.35,0.3522,0.3516,0.3519,0.3565,0.3588,0.3509,0.3583,0.3584,0.3584,0.3627,0.3632,0.3575,0.3575,0.3575,0.3575,0,0.3078,0.3114,0.3154,0.3204,0.3248,0.3313,0.3334,0.3364,0.3379,0.3392,0.3429,0.3486,0.3513,0.3541,0.3528,0.3551,0.3567,0.3591,0.3556,0.3585,0.3631,0.3636,0.3575,0.3575,0.3575,0.3575,0,0,0.3007,0.3152,0.3152,0.3167,0.326,0.3288,0.329,0.3304,0.3278,0.3356,0.3352,0.3391,0.3446,0.3446,0.3492,0.351,0.3559,0.3535,0.3538,0.355,0.3655,0.3531,0.3525,0.3594,0.3594,0.3595,0.3694,0,0.3007,0.31,0.3162,0.3186,0.3217,0.3257,0.3245,0.3254,0.3272,0.329,0.3334,0.3368,0.34,0.3443,0.3467,0.3559,0.3567,0.3529,0.3645,0.3647,0.3511,0.3524,0.3274,0.3327,0.3699,0.37,0.37,0,0.2999,0.3067,0.3124,0.3165,0.3171,0.3173,0.3155,0.3168,0.3181,0.32,0.3247,0.3307,0.3375,0.3404,0.3525,0.3504,0.3549,0.36,0.3606,0.3478,0.3529,0.3355,0.3322,0.3311,0.3708,0.3708,0.3707,0,0.2928,0.3008,0.3056,0.3083,0.3146,0.3125,0.313,0.3131,0.3127,0.3167,0.3193,0.3279,0.3367,0.3438,0.3547,0.3551,0.366,0.3704,0.362,0.3615,0.341,0.3384,0.3341,0.3727,0.3727,0.3727,0.3727,0,0.2929,0.2936,0.3016,0.3045,0.3014,0.3066,0.303,0.3038,0.3075,0.3062,0.3162,0.3196,0.3374,0.3465,0.354,0.3592,0.3673,0.3583,0.3615,0.3405,0.3378,0.3365,0.3371,0.3731,0.373,0.3729,0.3728,0,0.2867,0.2952,0.2974,0.3016,0.3004,0.2977,0.2975,0.2946,0.3002,0.301,0.3037,0.3174,0.3307,0.3441,0.359,0.3586,0.353,0.3627,0.3359,0.3353,0.3242,0.3256,0.2992,0.295,0.3567,0.3565,0.3562,0,0.2867,0.2886,0.2923,0.292,0.2939,0.2907,0.2871,0.2899,0.2881,0.2972,0.2969,0.3122,0.317,0.3349,0.3383,0.3469,0.3432,0.3261,0.3195,0.3161,0.3205,0.3046,0.3023,0.296,0.2952,0.2947,0.2942,0,0.2825,0.284,0.2874,0.2868,0.2833,0.2784,0.2746,0.2721,0.2756,0.2765,0.2808,0.2869,0.3014,0.3003,0.3098,0.3112,0.306,0.3142,0.3176,0.2745,0.2496,0.2497,0.3001,0.289,0.2896,0.2899,0.2902,0.2904,0.2771,0.2775,0.282,0.2782,0.2743,0.266,0.2578,0.2549,0.2506,0.2472,0.2601,0.2584,0.2657,0.2762,0.2776,0.2657,0.2721,0.2585,0.2621,0.2476,0.2337,0.2706,0.2586,0.2589,0.2592,0.2594,0.2596,0,0.2696,0.2717,0.2713,0.2665,0.2564,0.2577,0.2476,0.2373,0.2262,0.2251,0.2245,0.22,0.2185,0.2267,0.2195,0.2135,0.2035,0.2141,0.1899,0.193,0.2324,0.2202,0.1904,0.1904,0.1904,0.1904,0.1904,0.1904,0.2678,0.2659,0.2653,0.2489,0.2432,0.2248,0.217,0.2056,0.1997,0.183,0.1733,0.1758,0.187,0.1877,0.1831,0.1805,0.1758,0.1553,0.1755,0.2096,0.2142,0.2185,0.2075,0.1754,0.1754,0.118,0.1176,0.1173]},{"header":{"parameterUnit":"m.s-1","parameterCategory":2,"la1":30.2991,"la2":30.254,"lo1":-89.0895,"lo2":-89.0444,"dy":0.0017,"dx":0.0017,"nx":28,"ny":28,"refTime":"2023-08-04T21:00:00:Z","depth":"0","parameterNumber":3,"parameterNumberName":"V-component_of_CURRENTS"},"data":[0,0,0,0,0,0,0,0,0,0,0,0,0,0,0,0,0,0,0,0,0,0,0,0,0,0,0,0,0,0,0,0,0,0,0,0,0,0,0,0,0,0,0,0,0,0,0,0,0,0,0,0,0,0,0,0,0,0,0.0742,0.0743,0,0.075,0.075,0.075,0.0687,0.0686,0.0684,0.0683,0.0663,0.0664,0.0665,0,0,0,0,0,0,0,0,0,0,0,0,0,0.0781,0.078,0.0742,0.0743,0.0743,0.075,0.075,0.075,0.0688,0.0686,0.0684,0.0682,0.0663,0.0664,0.0665,0,0,0,0,0,0,0,0,0,0,0,0,0,0.0773,0.078,0.0742,0.0713,0.0711,0.075,0.075,0.075,0.0688,0.0686,0.0683,0.0681,0.0662,0.0664,0.0665,0.0723,0,0,0.067,0.0671,0,0,0,0,0,0,0,0,0.0773,0.0771,0.0717,0.0716,0.0713,0.0716,0.0757,0.074,0.0689,0.0695,0.0683,0.068,0.0681,0.0681,0.0686,0.0722,0.0722,0.067,0.0671,0.0672,0.0672,0,0,0,0,0,0,0,0.0774,0.0771,0.0744,0.0718,0.0715,0.0738,0.0732,0.0754,0.07,0.0695,0.069,0.0694,0.0679,0.0685,0.0685,0.0721,0.067,0.0671,0.0672,0.0673,0.0787,0.0789,0,0,0,0,0,0,0.0773,0.0771,0.0744,0.0744,0.0739,0.0738,0.0733,0.0717,0.07,0.0696,0.0696,0.0691,0.0684,0.0684,0.0684,0.075,0.0672,0.0673,0.0674,0.0785,0.0788,0.079,0,0,0,0,0,0,0.0773,0.0769,0.0743,0.0761,0.0759,0.074,0.0723,0.0718,0.0725,0.0702,0.0697,0.0708,0.0682,0.0682,0.0684,0.0748,0.0674,0.0675,0.0782,0.0786,0.0789,0.0882,0,0,0,0,0,0,0.0774,0.0769,0.0765,0.076,0.0758,0.0776,0.0725,0.072,0.0732,0.0725,0.0711,0.0706,0.068,0.0682,0.0686,0.0749,0.0676,0.078,0.0784,0.0788,0.0877,0.0888,0.0899,0,0,0,0,0,0.0775,0.0777,0.0764,0.0762,0.0749,0.0778,0.078,0.0758,0.0735,0.0753,0.0718,0.0707,0.0711,0.0684,0.0688,0.0754,0.0778,0.0783,0.0787,0.0872,0.0886,0.0898,0,0,0,0,0,0,0.0806,0.0771,0.0757,0.0751,0.0769,0.0768,0.0775,0.0775,0.0767,0.0751,0.0722,0.0716,0.0749,0.0737,0.0708,0.0799,0.075,0.0756,0.0813,0.0826,0.0837,0.0831,0.0677,0,0,0,0,0,0.081,0.0795,0.0787,0.0794,0.0789,0.079,0.08,0.0796,0.0787,0.0781,0.0781,0.0774,0.0779,0.0784,0.079,0.0837,0.0801,0.0886,0.0897,0.0906,0.0905,0.0889,0.0898,0.0806,0.0806,0.0805,0,0,0.0825,0.081,0.0801,0.0801,0.0797,0.0822,0.0788,0.081,0.0845,0.0784,0.0825,0.0815,0.0798,0.0839,0.0856,0.0832,0.0917,0.0913,0.0921,0.0914,0.0895,0.0904,0.0912,0.0809,0.0808,0.0808,0,0,0.0861,0.083,0.0828,0.0844,0.0854,0.0857,0.087,0.0885,0.0892,0.0933,0.0897,0.0917,0.0939,0.0941,0.0939,0.1022,0.0975,0.1037,0.1091,0.1077,0.1084,0.1089,0.1062,0.1065,0.1044,0.1044,0.1044,0,0.0878,0.0877,0.0846,0.0866,0.0883,0.0876,0.0908,0.0929,0.0959,0.0967,0.0955,0.0988,0.0992,0.1021,0.1049,0.1051,0.1013,0.104,0.1089,0.1094,0.1098,0.1069,0.107,0.1049,0.1049,0.1048,0.1048,0,0.0916,0.0925,0.0932,0.0939,0.0965,0.0994,0.1011,0.1046,0.1058,0.1073,0.1114,0.1113,0.1125,0.1153,0.1124,0.1172,0.1126,0.1102,0.1051,0.1113,0.1079,0.1078,0.1056,0.1055,0.1053,0.1052,0,0,0.0903,0.0945,0.0945,0.0966,0.1003,0.1024,0.1082,0.1117,0.1146,0.1183,0.1225,0.1256,0.1246,0.1245,0.1235,0.1234,0.1253,0.1183,0.118,0.1148,0.1197,0.1224,0.1225,0.122,0.122,0.1221,0.1163,0,0.0934,0.098,0.1005,0.1068,0.108,0.111,0.1169,0.1206,0.1232,0.1278,0.1278,0.1314,0.1284,0.1301,0.1297,0.1279,0.1253,0.1269,0.1149,0.1145,0.1155,0.1227,0.1165,0.1113,0.1162,0.1162,0.1162,0,0.0943,0.0973,0.103,0.1107,0.1116,0.1167,0.1226,0.1288,0.1336,0.1358,0.1376,0.1374,0.1409,0.1367,0.1335,0.1337,0.1267,0.1233,0.1229,0.1218,0.1173,0.1059,0.1109,0.106,0.116,0.116,0.116,0,0.0914,0.0986,0.1031,0.1056,0.1144,0.1181,0.1235,0.1295,0.1352,0.1405,0.1441,0.145,0.1483,0.1411,0.1371,0.134,0.1315,0.1264,0.1204,0.1203,0.1112,0.1104,0.1092,0.1196,0.1196,0.1196,0.1196,0,0.0925,0.0964,0.1014,0.1044,0.1109,0.1169,0.1249,0.1305,0.139,0.1453,0.1475,0.1529,0.1492,0.1481,0.1394,0.1332,0.133,0.1227,0.1202,0.1146,0.1143,0.1062,0.1051,0.1194,0.1194,0.1195,0.1195,0,0.0912,0.0948,0.1003,0.1079,0.11,0.1149,0.1269,0.1328,0.1405,0.1492,0.1517,0.1599,0.1606,0.1549,0.1471,0.1387,0.1288,0.1258,0.1203,0.1175,0.1087,0.1084,0.1087,0.11,0.1187,0.1188,0.1188,0,0.0935,0.0941,0.1007,0.1048,0.1092,0.1162,0.122,0.132,0.1385,0.153,0.1574,0.1636,0.167,0.1608,0.149,0.1357,0.1301,0.1197,0.1143,0.11,0.1075,0.11,0.1113,0.1043,0.1042,0.1041,0.1041,0,0.0962,0.0961,0.1006,0.1068,0.1126,0.1202,0.1286,0.1336,0.1455,0.1527,0.1638,0.1687,0.1662,0.157,0.1441,0.1329,0.1201,0.1181,0.1135,0.0982,0.1004,0.0998,0.106,0.1035,0.1036,0.1036,0.1036,0.1037,0.0982,0.1007,0.1042,0.1103,0.117,0.1249,0.1298,0.1381,0.1482,0.1587,0.1645,0.1694,0.1592,0.1443,0.133,0.1105,0.1171,0.0988,0.0989,0.102,0.1046,0.1119,0.1082,0.1083,0.1083,0.1084,0.1085,0,0.1,0.1024,0.1084,0.1159,0.1217,0.1257,0.1349,0.1388,0.147,0.156,0.1627,0.159,0.1426,0.1275,0.1003,0.0893,0.0877,0.0853,0.0826,0.085,0.088,0.0887,0.0808,0.0808,0.0808,0.0808,0.0808,0.0808,0.1019,0.1058,0.1075,0.1168,0.1223,0.1292,0.1335,0.1389,0.1452,0.1522,0.154,0.1593,0.1553,0.1074,0.0794,0.0728,0.0717,0.0715,0.0775,0.072,0.0731,0.0742,0.0745,0.0637,0.0637,0.0719,0.072,0.072]}],[{"header":{"parameterUnit":"m.s-1","parameterCategory":2,"la1":30.2991,"la2":30.254,"lo1":-89.0895,"lo2":-89.0444,"dy":0.0017,"dx":0.0017,"nx":28,"ny":28,"refTime":"2023-08-04T21:00:00:Z","depth":"2","parameterNumber":2,"parameterNumberName":"U-component_of_CURRENTS"},"data":[0,0,0,0,0,0,0,0,0,0,0,0,0,0,0,0,0,0,0,0,0,0,0,0,0,0,0,0,0,0,0,0,0,0,0,0,0,0,0,0,0,0,0,0,0,0,0,0,0,0,0,0,0,0,0,0,0,0,0.2063,0.2065,0,0.229,0.2293,0.2296,0.2314,0.2311,0.2308,0.2305,0.2314,0.2317,0.232,0,0,0,0,0,0,0,0,0,0,0,0,0,0.205,0.2048,0.2063,0.2065,0.2067,0.229,0.2293,0.2297,0.2315,0.2311,0.2307,0.2304,0.2313,0.2317,0.232,0,0,0,0,0,0,0,0,0,0,0,0,0,0.2148,0.2047,0.2062,0.2099,0.2104,0.2289,0.2294,0.2298,0.2316,0.2311,0.2306,0.2302,0.2312,0.2316,0.2321,0.2439,0,0,0.2335,0.2337,0,0,0,0,0,0,0,0,0.2142,0.2149,0.2091,0.2096,0.2102,0.2264,0.2292,0.2332,0.2317,0.2241,0.2305,0.23,0.2277,0.2284,0.2348,0.244,0.244,0.2335,0.2338,0.234,0.2341,0,0,0,0,0,0,0,0.2135,0.2142,0.2159,0.2094,0.2101,0.2243,0.2248,0.2303,0.2282,0.2247,0.2248,0.2266,0.2278,0.2344,0.2348,0.244,0.2335,0.2339,0.2342,0.2344,0.2515,0.2517,0,0,0,0,0,0,0.2079,0.2133,0.2151,0.2165,0.2105,0.2244,0.2252,0.2222,0.2286,0.2292,0.2269,0.2265,0.2338,0.2342,0.2347,0.2372,0.234,0.2344,0.2347,0.2513,0.2515,0.2517,0,0,0,0,0,0,0.2077,0.2076,0.2142,0.2154,0.217,0.2245,0.2215,0.2228,0.2282,0.2304,0.2305,0.2305,0.2335,0.2341,0.2421,0.2375,0.2346,0.235,0.2511,0.2514,0.2516,0.2495,0,0,0,0,0,0,0.2075,0.2073,0.2053,0.2147,0.2167,0.21,0.2219,0.2236,0.2297,0.2295,0.2336,0.2333,0.2332,0.2415,0.2426,0.2381,0.2354,0.2509,0.2512,0.2516,0.2493,0.2496,0.2499,0,0,0,0,0,0.2073,0.2038,0.2049,0.2053,0.2127,0.2093,0.2112,0.2163,0.2303,0.2224,0.2388,0.2331,0.244,0.2424,0.2435,0.2389,0.2507,0.2511,0.2515,0.2492,0.2496,0.2499,0,0,0,0,0,0,0.2025,0.204,0.2053,0.2024,0.1989,0.2089,0.2105,0.2183,0.2273,0.233,0.2404,0.2409,0.2421,0.2457,0.2438,0.2452,0.2445,0.2452,0.2423,0.2427,0.243,0.2384,0.2358,0,0,0,0,0,0.2006,0.1986,0.1978,0.1956,0.1949,0.2054,0.2084,0.21,0.2196,0.2235,0.2311,0.2411,0.246,0.2487,0.2496,0.2571,0.2568,0.2538,0.254,0.2543,0.2517,0.257,0.2574,0.2531,0.2531,0.2531,0,0,0.1987,0.2005,0.1989,0.1946,0.199,0.1957,0.2057,0.2063,0.2121,0.2226,0.2372,0.2401,0.2478,0.251,0.2519,0.2535,0.2547,0.2548,0.2549,0.2521,0.2574,0.2578,0.2581,0.2534,0.2533,0.2533,0,0,0.1938,0.1947,0.1899,0.1874,0.1877,0.191,0.1901,0.198,0.208,0.2217,0.2297,0.2325,0.2479,0.2468,0.2513,0.2559,0.2536,0.256,0.2568,0.262,0.2623,0.2626,0.2585,0.2585,0.2593,0.2593,0.2593,0,0.1932,0.1872,0.187,0.183,0.1864,0.1885,0.1863,0.1952,0.2066,0.2172,0.2229,0.2433,0.2449,0.2503,0.2511,0.2547,0.258,0.2544,0.262,0.2623,0.2626,0.2585,0.2584,0.2592,0.2592,0.2593,0.2593,0,0.1814,0.1803,0.179,0.1752,0.1746,0.1726,0.1806,0.1887,0.2071,0.2139,0.226,0.2341,0.2444,0.2436,0.2517,0.2526,0.2536,0.2588,0.2599,0.2628,0.2583,0.2583,0.2592,0.2592,0.2592,0.2592,0,0,0.1756,0.1716,0.1725,0.1734,0.1735,0.172,0.1856,0.1926,0.2062,0.2146,0.2309,0.2368,0.2383,0.2433,0.2473,0.2518,0.254,0.2589,0.2592,0.2523,0.2624,0.2373,0.2348,0.2653,0.2654,0.2655,0.2567,0,0.1691,0.1614,0.1644,0.1631,0.1604,0.1734,0.1848,0.1932,0.209,0.2216,0.2293,0.238,0.2398,0.2462,0.2501,0.2579,0.2549,0.2554,0.2626,0.2625,0.238,0.2342,0.2235,0.2128,0.2567,0.2567,0.2567,0,0.1565,0.156,0.1519,0.1632,0.1648,0.1682,0.1909,0.2014,0.2165,0.2306,0.2375,0.2401,0.2462,0.2483,0.2568,0.2608,0.2578,0.2593,0.2593,0.236,0.2373,0.2182,0.211,0.2566,0.2566,0.2566,0.2566,0,0.1488,0.1505,0.1498,0.1513,0.1592,0.1749,0.1869,0.2043,0.2173,0.2343,0.2394,0.2466,0.2518,0.2582,0.2567,0.2637,0.2604,0.2713,0.2392,0.2373,0.2281,0.225,0.2643,0.2643,0.2643,0.2643,0.2644,0,0.1407,0.1425,0.1488,0.1486,0.162,0.1722,0.1904,0.2092,0.224,0.2301,0.2409,0.2412,0.2558,0.2532,0.2564,0.2446,0.2598,0.2334,0.233,0.2262,0.2232,0.2634,0.2634,0.264,0.2641,0.2641,0.2642,0,0.1331,0.1322,0.1353,0.1488,0.1571,0.17,0.195,0.2044,0.2219,0.2328,0.2364,0.2396,0.2371,0.2367,0.2401,0.2376,0.2334,0.2186,0.2023,0.1997,0.2076,0.2078,0.1942,0.1932,0.1924,0.1917,0.1912,0,0.1275,0.1255,0.1373,0.1431,0.154,0.1727,0.1849,0.2062,0.2125,0.2275,0.2264,0.2213,0.2075,0.1965,0.1914,0.1824,0.1948,0.1658,0.1725,0.1992,0.2004,0.2018,0.203,0.1607,0.1599,0.1593,0.1588,0,0.1203,0.124,0.1247,0.1384,0.1523,0.1668,0.1857,0.1877,0.2075,0.2109,0.208,0.197,0.1754,0.1565,0.1363,0.1319,0.1717,0.1514,0.1888,0.176,0.1658,0.1676,0.1703,0.1531,0.1537,0.1541,0.1544,0.1546,0.1156,0.1163,0.1158,0.1333,0.149,0.163,0.172,0.1773,0.182,0.1853,0.1771,0.159,0.1463,0.1058,0.1003,0.1028,0.1112,0.1199,0.1229,0.1264,0.1199,0.1085,0.0834,0.0836,0.0837,0.0838,0.0839,0,0.1084,0.1088,0.1138,0.1284,0.1454,0.1614,0.1715,0.1708,0.1707,0.1609,0.149,0.1141,0.0881,0.083,0.0769,0.0725,0.0836,0.0742,0.0962,0.101,0.1055,0.0994,0.0568,0.0569,0.0569,0.0569,0,0,0.1002,0.0979,0.1007,0.1211,0.1409,0.1583,0.1663,0.1602,0.1492,0.1255,0.1105,0.0872,0.0793,0.0703,0.064,0.0651,0.0853,0.0612,0.081,0.1118,0.1166,0.1265,0.1211,0,0,0,0,0]},{"header":{"parameterUnit":"m.s-1","parameterCategory":2,"la1":30.2991,"la2":30.254,"lo1":-89.0895,"lo2":-89.0444,"dy":0.0017,"dx":0.0017,"nx":28,"ny":28,"refTime":"2023-08-04T21:00:00:Z","depth":"2","parameterNumber":3,"parameterNumberName":"V-component_of_CURRENTS"},"data":[0,0,0,0,0,0,0,0,0,0,0,0,0,0,0,0,0,0,0,0,0,0,0,0,0,0,0,0,0,0,0,0,0,0,0,0,0,0,0,0,0,0,0,0,0,0,0,0,0,0,0,0,0,0,0,0,0,0,-0.0132,-0.0132,0,-0.0135,-0.0134,-0.0134,-0.0145,-0.0145,-0.0146,-0.0146,-0.0119,-0.0118,-0.0116,0,0,0,0,0,0,0,0,0,0,0,0,0,0.0019,0.0015,-0.0132,-0.0132,-0.0132,-0.0135,-0.0134,-0.0134,-0.0145,-0.0145,-0.0146,-0.0147,-0.0119,-0.0118,-0.0116,0,0,0,0,0,0,0,0,0,0,0,0,0,-0.0019,0.0014,-0.0132,-0.014,-0.0141,-0.0135,-0.0134,-0.0134,-0.0145,-0.0145,-0.0146,-0.0147,-0.012,-0.0118,-0.0116,-0.0088,0,0,-0.011,-0.0109,0,0,0,0,0,0,0,0,-0.0017,-0.0024,-0.0139,-0.014,-0.0141,-0.0143,-0.0071,-0.0118,-0.0144,-0.014,-0.0147,-0.0147,-0.0126,-0.0123,-0.0118,-0.0087,-0.0086,-0.011,-0.0109,-0.0108,-0.0108,0,0,0,0,0,0,0,-0.0015,-0.0023,-0.013,-0.0139,-0.014,-0.0091,-0.0099,-0.0079,-0.0125,-0.014,-0.0142,-0.0147,-0.0126,-0.012,-0.0117,-0.0085,-0.011,-0.0109,-0.0107,-0.0107,-0.0,0.0001,0,0,0,0,0,0,-0.0029,-0.0022,-0.0129,-0.013,-0.0083,-0.0094,-0.0102,-0.0139,-0.0126,-0.0126,-0.0147,-0.0148,-0.0122,-0.0119,-0.0116,-0.0071,-0.0108,-0.0106,-0.0105,-0.0002,-0.0,0.0002,0,0,0,0,0,0,-0.0026,-0.004,-0.0129,-0.0076,-0.0085,-0.0098,-0.0137,-0.0139,-0.013,-0.0132,-0.0131,-0.0137,-0.0123,-0.0119,-0.0084,-0.007,-0.0106,-0.0104,-0.0004,-0.0001,0.0001,0.0013,0,0,0,0,0,0,-0.0022,-0.0039,-0.0061,-0.0079,-0.0088,-0.0171,-0.0137,-0.0138,-0.0134,-0.0135,-0.0123,-0.0121,-0.0123,-0.0087,-0.0082,-0.0069,-0.0102,-0.0006,-0.0003,0.0,0.001,0.0015,0.002,0,0,0,0,0,-0.0017,-0.0056,-0.0063,-0.0075,-0.0123,-0.0174,-0.0176,-0.0181,-0.0132,-0.0165,-0.0108,-0.0122,-0.0064,-0.0084,-0.0079,-0.0064,-0.0008,-0.0004,-0.0,0.0008,0.0014,0.002,0,0,0,0,0,0,0.0032,-0.0062,-0.0069,-0.0124,-0.0165,-0.0178,-0.0203,-0.0171,-0.0148,-0.0135,-0.0099,-0.0095,-0.0067,-0.0054,-0.0077,-0.0021,-0.0038,-0.0033,-0.0033,-0.0027,-0.0023,0.0011,-0.0101,0,0,0,0,0,0.0025,-0.005,-0.0104,-0.0143,-0.018,-0.0177,-0.0186,-0.019,-0.0175,-0.0166,-0.0134,-0.0088,-0.0046,-0.0028,-0.0016,0.0025,0.0023,0.004,0.0045,0.0049,0.0082,0.0112,0.0122,0.0014,0.0014,0.0014,0,0,0.0034,-0.0019,-0.0059,-0.014,-0.0172,-0.0204,-0.0187,-0.0226,-0.0158,-0.0163,-0.0073,-0.0084,-0.0033,-0.0001,0.0015,0.0013,0.0065,0.0054,0.0056,0.0089,0.0117,0.0128,0.0137,0.0017,0.0017,0.0016,0,0,0.0014,-0.0043,-0.012,-0.0165,-0.023,-0.0226,-0.0233,-0.025,-0.018,-0.0104,-0.0085,-0.0088,0.0006,0.0008,0.0044,0.009,0.008,0.0103,0.0165,0.0193,0.0202,0.021,0.0156,0.016,0.0117,0.0117,0.0117,0,0.0045,-0.0051,-0.0138,-0.0206,-0.0209,-0.023,-0.025,-0.0185,-0.0154,-0.0071,-0.0074,0.0022,0.0018,0.0087,0.0105,0.0096,0.0106,0.0132,0.0198,0.0206,0.0214,0.0158,0.0162,0.0118,0.0118,0.0118,0.0118,0,-0.0057,-0.0096,-0.0143,-0.0228,-0.0245,-0.028,-0.0228,-0.0145,-0.0045,-0.0005,0.0087,0.0074,0.0135,0.0116,0.0147,0.0198,0.0177,0.0184,0.0177,0.0226,0.0162,0.0166,0.0119,0.0119,0.0119,0.0118,0,0,-0.0028,-0.0185,-0.0179,-0.0185,-0.0249,-0.0251,-0.0111,-0.0013,0.0137,0.0138,0.0274,0.0292,0.0244,0.0281,0.0253,0.0269,0.0285,0.0278,0.0278,0.0212,0.0315,0.0304,0.0305,0.0329,0.0332,0.0334,0.0223,0,-0.0048,-0.0155,-0.0202,-0.0192,-0.0233,-0.0157,-0.0025,0.0077,0.022,0.0334,0.0323,0.0382,0.0328,0.0344,0.0348,0.0335,0.031,0.0312,0.0291,0.0289,0.0265,0.0316,0.0255,0.0157,0.0226,0.0227,0.0227,0,-0.0117,-0.0153,-0.0205,-0.0134,-0.0136,-0.0087,0.0164,0.0277,0.0434,0.0547,0.0576,0.0539,0.0538,0.0482,0.0464,0.0488,0.0414,0.0363,0.0358,0.0363,0.0289,0.0136,0.0161,0.0233,0.0232,0.0232,0.0232,0,-0.008,-0.0109,-0.0126,-0.0137,-0.0102,0.0039,0.0145,0.0336,0.0485,0.0659,0.0724,0.0708,0.0696,0.0657,0.054,0.0544,0.0485,0.0464,0.0342,0.0335,0.0289,0.0277,0.042,0.042,0.042,0.0421,0.0421,0,-0.01,-0.0065,-0.0088,-0.0097,0.0055,0.0071,0.0298,0.0483,0.0626,0.074,0.0787,0.0827,0.076,0.0691,0.059,0.0488,0.0522,0.0372,0.0338,0.0284,0.0274,0.0364,0.0359,0.0416,0.0417,0.0418,0.0419,0,-0.0083,-0.0134,-0.0118,-0.0045,0.0042,0.0152,0.0386,0.0544,0.0705,0.087,0.0898,0.0919,0.0849,0.0712,0.06,0.0549,0.0445,0.0363,0.0263,0.0224,0.0249,0.0246,0.027,0.027,0.0269,0.0269,0.0268,0,-0.0109,-0.0133,-0.0074,-0.0003,0.0059,0.0248,0.0407,0.0605,0.0738,0.0913,0.0941,0.0894,0.0841,0.0659,0.0517,0.0333,0.0315,0.0226,0.0234,0.0285,0.0249,0.0247,0.0244,0.0121,0.0119,0.0118,0.0117,0,-0.011,-0.012,-0.0118,0.0012,0.0175,0.0354,0.0573,0.0672,0.0871,0.0984,0.1039,0.0985,0.0778,0.0554,0.0337,0.0229,0.0283,0.0198,0.0303,0.0196,0.0145,0.0109,0.0111,0.0106,0.0107,0.0108,0.0108,0.0109,-0.0089,-0.0091,-0.0104,0.0055,0.0246,0.0456,0.0622,0.0763,0.0924,0.1069,0.097,0.0904,0.0676,0.0328,0.0194,0.0123,0.0121,0.011,0.0114,0.0119,0.015,0.0105,0.0057,0.0058,0.0058,0.0059,0.006,0,-0.0081,-0.0072,-0.0005,0.016,0.0366,0.0503,0.0737,0.0844,0.1018,0.102,0.0999,0.0686,0.0434,0.024,0.0099,0.0034,0.0038,0.0028,0.0019,0.0027,0.0036,0.0065,-0.0052,-0.0052,-0.0052,-0.0051,0,0,-0.0075,-0.0053,-0.0036,0.0251,0.0441,0.0738,0.0896,0.0987,0.0995,0.0962,0.088,0.0657,0.0411,0.0272,0.0103,0.0051,0.0094,0.0055,0.0137,0.015,0.0162,0.0053,0.0104,0,0,0,0,0]}],[{"header":{"parameterUnit":"m.s-1","parameterCategory":2,"la1":30.2991,"la2":30.254,"lo1":-89.0895,"lo2":-89.0444,"dy":0.0017,"dx":0.0017,"nx":28,"ny":28,"refTime":"2023-08-04T21:00:00:Z","depth":"4","parameterNumber":2,"parameterNumberName":"U-component_of_CURRENTS"},"data":[0,0,0,0,0,0,0,0,0,0,0,0,0,0,0,0,0,0,0,0,0,0,0,0,0,0,0,0,0,0,0,0,0,0,0,0,0,0,0,0,0,0,0,0,0,0,0,0,0,0,0,0,0,0,0,0,0,0,-0.05,-0.05,0,-0.0561,-0.0562,-0.0564,-0.0669,-0.067,-0.067,-0.0671,-0.0689,-0.0689,-0.0689,0,0,0,0,0,0,0,0,0,0,0,0,0,-0.0459,-0.0461,-0.05,-0.05,-0.0499,-0.056,-0.0562,-0.0564,-0.0669,-0.067,-0.0671,-0.0672,-0.069,-0.0689,-0.0689,0,0,0,0,0,0,0,0,0,0,0,0,0,-0.0506,-0.0461,-0.05,-0.0549,-0.0554,-0.056,-0.0562,-0.0565,-0.0668,-0.067,-0.0671,-0.0672,-0.069,-0.0689,-0.0689,-0.0661,0,0,-0.0687,-0.0687,0,0,0,0,0,0,0,0,-0.0503,-0.0509,-0.0543,-0.0546,-0.055,-0.0597,-0.0554,-0.0591,-0.0668,-0.0638,-0.0671,-0.0673,-0.0646,-0.0649,-0.0676,-0.0662,-0.0663,-0.0687,-0.0687,-0.0687,-0.0687,0,0,0,0,0,0,0,-0.05,-0.0507,-0.0537,-0.0542,-0.0546,-0.0562,-0.0572,-0.0563,-0.0643,-0.0641,-0.0645,-0.0632,-0.065,-0.0676,-0.0677,-0.0663,-0.0687,-0.0687,-0.0687,-0.0687,-0.0562,-0.056,0,0,0,0,0,0,-0.0467,-0.0504,-0.0534,-0.0537,-0.0515,-0.0561,-0.0573,-0.0591,-0.0644,-0.065,-0.0631,-0.0636,-0.0676,-0.0677,-0.0677,-0.0688,-0.0687,-0.0687,-0.0686,-0.0565,-0.0562,-0.0559,0,0,0,0,0,0,-0.0467,-0.0471,-0.0532,-0.051,-0.0517,-0.0559,-0.058,-0.0591,-0.0652,-0.0635,-0.0643,-0.0681,-0.0677,-0.0678,-0.0687,-0.0688,-0.0686,-0.0686,-0.0569,-0.0564,-0.056,-0.0683,0,0,0,0,0,0,-0.0466,-0.0471,-0.0495,-0.0509,-0.0517,-0.0544,-0.0578,-0.0591,-0.0633,-0.0643,-0.0679,-0.0681,-0.0678,-0.0688,-0.0687,-0.0687,-0.0686,-0.0573,-0.0567,-0.0562,-0.0683,-0.0683,-0.0683,0,0,0,0,0,-0.0465,-0.0484,-0.0497,-0.0501,-0.0543,-0.0543,-0.0551,-0.0592,-0.0634,-0.0656,-0.0681,-0.0682,-0.0648,-0.0688,-0.0686,-0.0687,-0.0576,-0.0569,-0.0562,-0.0682,-0.0683,-0.0683,0,0,0,0,0,0,-0.0484,-0.0496,-0.0511,-0.0537,-0.0539,-0.0556,-0.058,-0.0608,-0.0652,-0.067,-0.0681,-0.0683,-0.0692,-0.0645,-0.0688,-0.0615,-0.0595,-0.0588,-0.0687,-0.0687,-0.0687,-0.0625,-0.0685,0,0,0,0,0,-0.0492,-0.0514,-0.0515,-0.0535,-0.0541,-0.057,-0.0585,-0.0605,-0.0626,-0.0653,-0.0664,-0.0652,-0.0653,-0.0642,-0.063,-0.0603,-0.0556,-0.0578,-0.0578,-0.058,-0.0517,-0.0445,-0.0435,-0.0536,-0.0536,-0.0536,0,0,-0.049,-0.0509,-0.0514,-0.0539,-0.0557,-0.0564,-0.0589,-0.0608,-0.0612,-0.0639,-0.0665,-0.068,-0.065,-0.0639,-0.0629,-0.0606,-0.0543,-0.0571,-0.0575,-0.0508,-0.0437,-0.0428,-0.042,-0.0531,-0.0532,-0.0533,0,0,-0.049,-0.053,-0.0543,-0.055,-0.0564,-0.0576,-0.0586,-0.0605,-0.0623,-0.0621,-0.0657,-0.0663,-0.0635,-0.0629,-0.0619,-0.0592,-0.0569,-0.0576,-0.052,-0.0455,-0.0447,-0.0439,-0.0464,-0.0457,-0.0553,-0.0553,-0.0553,0,-0.0506,-0.0521,-0.0542,-0.0556,-0.0557,-0.0585,-0.0588,-0.0602,-0.0617,-0.0608,-0.0621,-0.061,-0.0616,-0.0611,-0.0594,-0.0601,-0.0573,-0.0555,-0.0463,-0.0453,-0.0443,-0.0469,-0.046,-0.0558,-0.0557,-0.0557,-0.0556,0,-0.0486,-0.0522,-0.0531,-0.0562,-0.0564,-0.0573,-0.057,-0.0577,-0.059,-0.0585,-0.0579,-0.0591,-0.0561,-0.0579,-0.0578,-0.0517,-0.0534,-0.051,-0.0486,-0.0442,-0.0471,-0.046,-0.0565,-0.0563,-0.0562,-0.0561,0,0,-0.0488,-0.0517,-0.0526,-0.0545,-0.057,-0.0569,-0.0563,-0.0551,-0.0541,-0.0539,-0.0513,-0.0521,-0.0519,-0.0497,-0.0526,-0.0459,-0.043,-0.0432,-0.0427,-0.05,-0.0337,-0.0374,-0.0366,-0.0394,-0.039,-0.0387,-0.0425,0,-0.0486,-0.0505,-0.0513,-0.0536,-0.055,-0.0557,-0.0534,-0.052,-0.0512,-0.0488,-0.0485,-0.0476,-0.0494,-0.0495,-0.0436,-0.0465,-0.0384,-0.0423,-0.0324,-0.0321,-0.0394,-0.0346,-0.0374,-0.0416,-0.0413,-0.0411,-0.041,0,-0.047,-0.0493,-0.0501,-0.0522,-0.0524,-0.0525,-0.0501,-0.048,-0.0442,-0.042,-0.0402,-0.0411,-0.0404,-0.0368,-0.0346,-0.0374,-0.0304,-0.0293,-0.0295,-0.0249,-0.0331,-0.0434,-0.0389,-0.039,-0.0392,-0.0393,-0.0395,0,-0.0453,-0.0493,-0.0502,-0.0509,-0.0518,-0.0506,-0.0495,-0.0455,-0.0424,-0.038,-0.0357,-0.0358,-0.0353,-0.0295,-0.0322,-0.0304,-0.027,-0.0259,-0.0218,-0.0227,-0.0138,-0.0144,-0.0087,-0.0087,-0.0087,-0.0087,-0.0087,0,-0.0456,-0.0476,-0.0497,-0.0503,-0.0498,-0.0485,-0.0453,-0.043,-0.0373,-0.0348,-0.0321,-0.0324,-0.03,-0.0318,-0.0304,-0.0291,-0.0266,-0.0176,-0.0201,-0.0202,-0.0213,-0.0138,-0.0143,-0.0088,-0.0088,-0.0088,-0.0087,0,-0.0449,-0.0465,-0.0481,-0.0487,-0.0497,-0.0478,-0.0448,-0.0413,-0.0354,-0.0325,-0.0308,-0.0288,-0.0319,-0.0343,-0.0291,-0.0276,-0.0265,-0.0215,-0.0296,-0.0332,-0.0269,-0.0279,-0.0177,-0.0178,-0.0179,-0.0179,-0.018,0,-0.045,-0.0456,-0.0474,-0.0486,-0.0502,-0.0481,-0.0463,-0.0407,-0.0385,-0.0338,-0.0339,-0.0319,-0.0322,-0.0332,-0.0335,-0.0337,-0.0265,-0.027,-0.0148,-0.0224,-0.0259,-0.0269,-0.0278,-0.0181,-0.0181,-0.0181,-0.0181,0,-0.0452,-0.045,-0.0453,-0.0473,-0.0482,-0.0482,-0.0469,-0.0432,-0.0374,-0.0358,-0.0325,-0.0301,-0.0308,-0.0323,-0.0308,-0.03,-0.0312,-0.0275,-0.027,-0.0155,-0.0228,-0.0264,-0.0273,-0.0184,-0.0183,-0.0183,-0.0183,0,-0.0446,-0.0435,-0.0433,-0.045,-0.0469,-0.0465,-0.0451,-0.0423,-0.0374,-0.0321,-0.0345,-0.0326,-0.0329,-0.0303,-0.0344,-0.0323,-0.0252,-0.0199,-0.0196,-0.0194,-0.0178,-0.0271,-0.0227,0,0,0,0,0,-0.0435,-0.0415,-0.0422,-0.0409,-0.0428,-0.045,-0.0455,-0.0432,-0.0401,-0.0364,-0.0326,-0.0337,-0.0301,-0.0315,-0.0282,-0.0339,-0.027,-0.0301,-0.0211,-0.0196,-0.0194,-0.0171,0,0,0,0,0,0,-0.0417,-0.0417,-0.0401,-0.0384,-0.0382,-0.0389,-0.0393,-0.0379,-0.0349,-0.0329,-0.0318,-0.0314,-0.0302,-0.0312,-0.0276,-0.0278,-0.0209,-0.0302,-0.0301,-0.0198,-0.0195,-0.0193,-0.017,0,0,0,0,0]},{"header":{"parameterUnit":"m.s-1","parameterCategory":2,"la1":30.2991,"la2":30.254,"lo1":-89.0895,"lo2":-89.0444,"dy":0.0017,"dx":0.0017,"nx":28,"ny":28,"refTime":"2023-08-04T21:00:00:Z","depth":"4","parameterNumber":3,"parameterNumberName":"V-component_of_CURRENTS"},"data":[0,0,0,0,0,0,0,0,0,0,0,0,0,0,0,0,0,0,0,0,0,0,0,0,0,0,0,0,0,0,0,0,0,0,0,0,0,0,0,0,0,0,0,0,0,0,0,0,0,0,0,0,0,0,0,0,0,0,0.0143,0.0143,0,0.0104,0.0104,0.0103,0.0083,0.0083,0.0084,0.0084,-0.0133,-0.0139,-0.0145,0,0,0,0,0,0,0,0,0,0,0,0,0,0.0131,0.0132,0.0143,0.0143,0.0143,0.0104,0.0104,0.0103,0.0083,0.0083,0.0084,0.0084,-0.0131,-0.0138,-0.0145,0,0,0,0,0,0,0,0,0,0,0,0,0,0.0116,0.0132,0.0143,0.013,0.0129,0.0105,0.0104,0.0103,0.0083,0.0083,0.0084,0.0084,-0.0129,-0.0137,-0.0146,-0.0209,0,0,-0.0174,-0.0178,0,0,0,0,0,0,0,0,0.0117,0.0117,0.0132,0.0131,0.013,0.0101,0.002,-0.0009,0.0083,0.0098,0.0084,0.0084,-0.007,-0.0083,-0.0093,-0.0219,-0.0228,-0.0174,-0.018,-0.0184,-0.0186,0,0,0,0,0,0,0,0.0119,0.0118,0.0125,0.0132,0.0131,0.0103,0.0102,0.0015,0.0007,0.0096,0.0095,0.0095,-0.0072,-0.0084,-0.0099,-0.0231,-0.0174,-0.0182,-0.0188,-0.0191,-0.0349,-0.0348,0,0,0,0,0,0,0.0132,0.0119,0.0126,0.0124,0.0127,0.0103,0.0102,0.0108,0.0012,-0.0,0.0095,0.0095,-0.0069,-0.0088,-0.0107,-0.0183,-0.0184,-0.0192,-0.0197,-0.035,-0.0349,-0.0348,0,0,0,0,0,0,0.0132,0.0134,0.0128,0.0122,0.012,0.0104,0.0111,0.0107,0.0097,0.0013,-0.0003,0.009,-0.0069,-0.0094,-0.0144,-0.0192,-0.0196,-0.0204,-0.0352,-0.035,-0.0348,-0.0339,0,0,0,0,0,0,0.0132,0.0134,0.0132,0.0124,0.0121,0.0124,0.011,0.0106,0.0097,0.0096,0.0002,-0.0017,-0.0071,-0.013,-0.0153,-0.0204,-0.0211,-0.0353,-0.0351,-0.0349,-0.0341,-0.0337,-0.0334,0,0,0,0,0,0.0132,0.0141,0.0133,0.0133,0.0124,0.0125,0.0121,0.0108,0.0097,0.0098,0.0058,-0.0014,-0.0132,-0.0136,-0.0163,-0.0219,-0.0354,-0.0352,-0.0349,-0.0342,-0.0338,-0.0334,0,0,0,0,0,0,0.0144,0.0139,0.0131,0.0139,0.0135,0.0123,0.0118,0.0108,0.0078,0.0068,-0.0004,-0.0025,-0.0078,-0.0134,-0.0136,-0.0246,-0.0255,-0.0258,-0.024,-0.0237,-0.0234,-0.0253,-0.0219,0,0,0,0,0,0.0144,0.015,0.014,0.0151,0.0143,0.0127,0.0121,0.0113,0.0091,0.0078,0.0015,-0.0045,-0.009,-0.0148,-0.019,-0.0276,-0.0284,-0.032,-0.0317,-0.0314,-0.0341,-0.032,-0.0318,-0.0339,-0.0339,-0.0339,0,0,0.0155,0.0153,0.0157,0.0153,0.0142,0.0131,0.0124,0.0119,0.01,0.0052,-0.0002,-0.0031,-0.0096,-0.0159,-0.0194,-0.0222,-0.031,-0.0311,-0.0309,-0.0338,-0.0317,-0.0315,-0.0314,-0.0337,-0.0337,-0.0338,0,0,0.0172,0.0173,0.0168,0.0165,0.0151,0.0139,0.0139,0.0115,0.0092,0.0043,0.0026,-0.0019,-0.0124,-0.0168,-0.0207,-0.0215,-0.0266,-0.0234,-0.0283,-0.0261,-0.026,-0.0259,-0.0265,-0.0265,-0.0266,-0.0265,-0.0265,0,0.0174,0.0174,0.017,0.0163,0.0157,0.0143,0.0131,0.0106,0.0071,0.0036,0.0027,-0.0076,-0.0135,-0.0204,-0.0206,-0.0219,-0.021,-0.0302,-0.0259,-0.0258,-0.0258,-0.0265,-0.0265,-0.0265,-0.0265,-0.0265,-0.0265,0,0.0179,0.0176,0.0178,0.0159,0.0154,0.015,0.012,0.0088,0.0048,0.0013,-0.0052,-0.0102,-0.0178,-0.0194,-0.0225,-0.0259,-0.0253,-0.023,-0.0276,-0.0255,-0.0263,-0.0264,-0.0264,-0.0264,-0.0264,-0.0264,0,0,0.0169,0.0175,0.0169,0.0161,0.015,0.0144,0.0105,0.0055,0.001,-0.0041,-0.0099,-0.0178,-0.0211,-0.0252,-0.0281,-0.0288,-0.0283,-0.0277,-0.0276,-0.0298,-0.0246,-0.0223,-0.0222,-0.0239,-0.0239,-0.0239,-0.0254,0,0.0158,0.0153,0.0155,0.0141,0.013,0.0111,0.0077,0.0033,-0.0024,-0.0084,-0.0144,-0.0201,-0.0231,-0.0271,-0.0282,-0.0263,-0.0283,-0.0283,-0.0253,-0.0254,-0.0246,-0.0221,-0.0239,-0.0254,-0.0254,-0.0254,-0.0254,0,0.0136,0.0137,0.0133,0.0118,0.0108,0.0097,0.0032,-0.0006,-0.0085,-0.0129,-0.0199,-0.0235,-0.0288,-0.0288,-0.0296,-0.0287,-0.0289,-0.0272,-0.0271,-0.0262,-0.0231,-0.0278,-0.0255,-0.0255,-0.0255,-0.0255,-0.0255,0,0.0118,0.0109,0.011,0.0111,0.0097,0.0072,0.004,-0.003,-0.0078,-0.016,-0.0192,-0.0252,-0.0285,-0.0274,-0.0265,-0.0284,-0.0226,-0.0244,-0.0233,-0.0232,-0.0256,-0.0257,-0.025,-0.025,-0.025,-0.025,-0.025,0,0.0101,0.0088,0.0101,0.0103,0.0072,0.0058,-0.0003,-0.005,-0.0113,-0.0164,-0.022,-0.0255,-0.0276,-0.0256,-0.0249,-0.0226,-0.0217,-0.025,-0.023,-0.025,-0.025,-0.0257,-0.0257,-0.0251,-0.0251,-0.025,-0.025,0,0.0073,0.0091,0.0085,0.0079,0.007,0.0039,-0.0016,-0.007,-0.0115,-0.0175,-0.0196,-0.0252,-0.0254,-0.0235,-0.0213,-0.0212,-0.0176,-0.0168,-0.019,-0.017,-0.0222,-0.0222,-0.0215,-0.0215,-0.0214,-0.0214,-0.0213,0,0.0059,0.0063,0.0071,0.0061,0.0056,0.0012,-0.0026,-0.0076,-0.0122,-0.0171,-0.0192,-0.0219,-0.0252,-0.0197,-0.0182,-0.0156,-0.0156,-0.0143,-0.0216,-0.0235,-0.0217,-0.0218,-0.0218,-0.0212,-0.0212,-0.0212,-0.0211,0,0.0029,0.0042,0.0041,0.0023,0.0001,-0.0036,-0.0086,-0.0104,-0.016,-0.0172,-0.0209,-0.0225,-0.0225,-0.0225,-0.0173,-0.0155,-0.015,-0.0137,-0.0142,-0.0211,-0.0231,-0.0214,-0.0215,-0.0209,-0.021,-0.021,-0.021,0,0.0001,-0.0009,-0.0005,-0.0026,-0.0055,-0.0093,-0.0108,-0.015,-0.0185,-0.0213,-0.0216,-0.0224,-0.0235,-0.0223,-0.0163,-0.0143,-0.0198,-0.0208,-0.021,-0.0212,-0.0199,-0.0222,-0.0189,0,0,0,0,0,-0.0028,-0.0044,-0.0066,-0.0087,-0.0117,-0.0132,-0.0159,-0.0167,-0.0175,-0.0205,-0.0217,-0.0219,-0.0214,-0.021,-0.0199,-0.0183,-0.0188,-0.0169,-0.0199,-0.0197,-0.0199,-0.0181,0,0,0,0,0,0,-0.0049,-0.007,-0.0076,-0.0137,-0.016,-0.0204,-0.0213,-0.0211,-0.0229,-0.0224,-0.0222,-0.0216,-0.0206,-0.0221,-0.02,-0.0195,-0.0213,-0.0161,-0.0161,-0.0195,-0.0197,-0.02,-0.0181,0,0,0,0,0]}]]